This demonstration page uses our WeatherBlox Daily Observations layout. Learn more.

Left ArrowRight Arrow

30.21309, -93.2044

Hourly Observations for January 16, 2022

Temp ( °F °C ) Dew Point ( °F °C ) Humidity (%) Winds ( mph kmh ) Pressure ( in mb ) Visibility ( mi km ) Precip ( " mm )
12:15 am 00:15 Partly Cloudy 33 0.8 19 -7.3 55 55 NW 20 31 30.04 1017 10 16 0.00 0.00
12:35 am 00:35 Partly Cloudy 33 0.6 19 -7.3 56 56 NW 23 37 30.03 1017 10 16 0.00 0.00
12:55 am 00:55 Mostly Cloudy 33 0.6 19 -7.2 56 56 WNW 16 26 30.04 1017 10 16 0.00 0.00
1:15 am 01:15 Cloudy 33 0.7 19 -7 57 57 NW 17 28 30.01 1016 10 16 0.00 0.00
1:35 am 01:35 Cloudy 34 0.9 20 -6.9 56 56 NW 22 35 30.03 1017 10 16 0.00 0.00
1:55 am 01:55 Cloudy 33 0.8 20 -6.8 57 57 NW 17 28 30.03 1017 10 16 0.00 0.00
2:15 am 02:15 Cloudy 33 0.8 20 -6.5 59 59 NW 14 22 30.05 1018 10 16 0.00 0.00
2:35 am 02:35 Mostly Cloudy 33 0.7 20 -6.4 59 59 NW 15 24 30.05 1018 10 16 0.00 0.00
2:55 am 02:55 Cloudy 34 0.9 21 -6.2 59 59 NW 17 28 30.04 1017 10 16 0.00 0.00
3:15 am 03:15 Cloudy 34 1.1 21 -6 60 60 WNW 15 24 30.03 1017 10 16 0.00 0.00
3:35 am 03:35 Cloudy 34 1.2 21 -5.9 60 60 WNW 16 26 30.02 1017 10 16 0.00 0.00
3:55 am 03:55 Mostly Cloudy 34 0.9 21 -6 60 60 NW 18 30 30.02 1017 10 16 0.00 0.00
4:15 am 04:15 Cloudy 34 1.2 22 -5.7 60 60 WNW 17 28 30.03 1017 10 16 0.00 0.00
4:35 am 04:35 Cloudy 34 1.2 22 -5.6 61 61 WNW 17 28 30.02 1017 10 16 0.00 0.00
4:55 am 04:55 Cloudy 34 1.3 22 -5.5 61 61 WNW 17 28 30.03 1017 10 16 0.00 0.00
5:15 am 05:15 Cloudy 35 1.4 22 -5.5 60 60 WNW 15 24 30.03 1017 10 16 0.00 0.00
5:35 am 05:35 Cloudy 35 1.4 22 -5.3 61 61 WNW 16 26 30.03 1017 10 16 0.00 0.00
6:00 am 06:00 Cloudy 36 2 23 -5 60 60 WNW 16 26 30.04 1017 10 16 0.00 0.00
6:48 am 06:48 Cloudy 36 2 25 -4 65 65 W 16 26 30.06 1018 10 16 0.00 0.00
7:52 am 07:52 Cloudy 36 2 25 -4 65 65 WNW 16 26 30.09 1019 10 16 0.00 0.00
8:52 am 08:52 Cloudy 36 2 25 -4 65 65 WNW 18 30 30.10 1019 10 16 0.00 0.00
9:53 am 09:53 Mostly Cloudy 37 3 27 -3 65 65 NW 14 22 30.11 1020 10 16 0.00 0.00
10:52 am 10:52 Mostly Sunny 39 4 27 -3 61 61 NNW 14 22 30.10 1019 10 16 0.00 0.00
11:55 am 11:55 Mostly Sunny 45 7 28 -2 53 53 NNW 13 20 30.07 1018 10 16 0.00 0.00
12:52 pm 12:52 Mostly Sunny 48 9 30 -1 50 50 NW 13 20 30.04 1017 10 16 0.00 0.00
1:54 pm 13:54 Mostly Sunny 50 10 30 -1 47 47 NNW 9 15 30.01 1016 10 16 0.00 0.00
2:45 pm 14:45 Mostly Sunny 54 12 30 -1 41 41 NNW 14 22 30.00 1016 10 16 0.00 0.00
3:45 pm 15:45 Mostly Sunny 54 12 30 -1 41 41 NNW 14 22 30.00 1016 10 16 0.00 0.00
4:45 pm 16:45 Mostly Sunny 54 12 32 0 44 44 NNW 10 17 30.02 1017 10 16 0.00 0.00
5:45 pm 17:45 Mostly Clear 48 9 32 0 54 54 NW 7 11 30.03 1017 10 16 0.00 0.00
6:55 pm 18:55 Mostly Clear 48 9 34 1 58 58 Calm 30.04 1017 10 16 0.00 0.00
7:45 pm 19:45 Mostly Clear 43 6 32 0 66 66 Calm 30.05 1018 10 16 0.00 0.00
8:45 pm 20:45 Mostly Clear 39 4 34 1 81 81 Calm 30.07 1018 10 16 0.00 0.00
9:45 pm 21:45 Mostly Clear 39 4 30 -1 70 70 Calm 30.09 1019 10 16 0.00 0.00
10:15 pm 22:15 Clear 40 4.3 33 0.4 76 76 NW 3 6 30.10 1019 10 16 0.00 0.00
10:35 pm 22:35 Clear 41 5 33 0.6 73 73 WNW 5 7 30.10 1019 10 16 0.00 0.00
10:55 pm 22:55 Clear 42 5.4 33 0.5 71 71 WNW 6 9 30.09 1019 10 16 0.00 0.00
11:15 pm 23:15 Clear 42 5.4 33 0.8 73 73 NW 5 7 30.10 1019 10 16 0.00 0.00
11:35 pm 23:35 Clear 42 5.4 33 0.7 72 72 WNW 5 7 30.10 1019 10 16 0.00 0.00
11:55 pm 23:55 Clear 43 6.1 33 0.7 69 69 WNW 5 7 30.10 1019 10 16 0.00 0.00

Powered by AerisWeather